User: anonymous   Login
Location: Unspecified
(0.0000°N, 0.0000°E)
Time: 12:37:50
(UTC+00:00)
Language:

Galileo 6 - Orbit

View from above orbital plane
View from above orbital plane
View from above satellite
View from above satellite

Ground track
Ground track

The orbit data is extracted from the following two-line orbital elements,

1 40129U 14050B   17087.47666515 -.00000047 +00000-0 +00000-0 0  9991
2 40129 050.3186 047.4415 1617030 061.7084 313.6069 01.85519584018003
Epoch (UTC): 28 March 2017 11:26:23
Eccentricity: 0.1617030
inclination: 50.3186°
perigee height: 17075 km
apogee height: 26123 km
right ascension of ascending node: 47.4415°
argument of perigee: 61.7084°
revolutions per day: 1.85519584
mean anomaly at epoch: 313.6069°
orbit number at epoch: 1800

The dashed part of the orbit path shows where the satellite is in the earth's shadow,  

DLR